Location: New Frontier Mobile Home Park
(32.8448°N, 116.9675°W)
Time: 23:17:49
(UTC+00:00)

Meteor 2-9 Rocket - Pass Details

Date: 14 July 2020
Orbit: 792 x 894 km, 81.3° (Epoch: 05 August)

Event Time Altitude Azimuth Distance (km) Brightness Sun altitude
Exits shadow 11:18:37 20° 190° (S) 1,781 5.5 -16.9°
Maximum altitude 11:22:25 84° 278° (W) 801 4.0 -16.3°
Drops below altitude 10° 11:27:46 10° 6° (N) 2,371 7.2 -15.4°
Sets 11:30:09 0° 7° (N) 3,312 8.0 -15.0°
